Weather History for PHTO - July, 2013

Change the Weather History Date:

Saturday, July 20, 2013

  Actual Average Record
Temperature  
Mean Temperature 76 °F 76 °F  
Max Temperature 84 °F 83 °F 87 °F (1980)
Min Temperature 68 °F 70 °F 64 °F (1955)
Degree Days  
Heating Degree Days 0 0  
Month to date heating degree days 0 0  
Since 1 June heating degree days 0 0  
Since 1 July heating degree days 0 0  
Cooling Degree Days 11 11  
Month to date cooling degree days 240 220  
Year to date cooling degree days 1714 1594  
Since 1 June cooling degree days 561 526  
Growing Degree Days 25 (Base 50)    
Moisture  
Dew Point 65 °F    
Average Humidity 72    
Maximum Humidity 90    
Minimum Humidity 54    
Precipitation  
Precipitation 0.30 in 0.37 in 5.20 in (1987)
Month to date precipitation 2.76 6.72  
Year to date precipitation 54.31 66.00  
Snow  
Snow 0.00 in - - ()
Month to date snowfall 0.0  
Since 1 June snowfall 0.0  
Since 1 July snowfall 0.0  
Snow Depth 0.00 in    
Sea Level Pressure  
Sea Level Pressure 30.06 in    
Wind  
Wind Speed 8 mph (West)    
Max Wind Speed 15 mph    
Max Gust Speed 19 mph    
Visibility 9 miles    
Events Rain    
T = Trace of Precipitation, MM = Missing Value Source: NWS Daily Summary

Daily Weather History Graph

Daily Weather History Graph

Search for Another Location

Airport or City:

Trip Planner

Search our weather history database for the weather conditions in past years. The results will help you decide how hot, cold, wet, or windy it might be!

Date:

Astronomy

Jul. 20, 2013 Rise Set
Actual Time 5:51 AM HST 7:01 PM HST
Civil Twilight 5:28 AM HST 7:25 PM HST
Nautical Twilight 4:59 AM HST 7:53 PM HST
Astronomical Twilight 4:30 AM HST 8:22 PM HST
Moon 5:16 PM HST (7/20) 3:42 AM HST (7/20)
Length of Visible Light 13h 57m
Length of Day
13h 09m
Waxing Gibbous, 95% of the Moon is Illuminated
Jul 20
Waxing Gibbous
Jul 22
Full
Jul 29
Last Quarter
Aug 6
New
Aug 14
First Quarter

Hourly Weather History & Observations

Time (HST) Temp. Heat Index Dew Point Humidity Pressure Visibility Wind Dir Wind Speed Gust Speed Precip Events Conditions
12:53 AM 70.0 °F - 64.0 °F 81% 30.08 in 10.0 mi WSW 5.8 mph - N/A   Mostly Cloudy
1:45 AM 71.1 °F - 66.0 °F 84% 30.08 in 8.0 mi SE 10.4 mph - 0.00 in Rain Light Rain
1:53 AM 71.1 °F - 66.9 °F 87% 30.08 in 2.5 mi SE 5.8 mph - N/A Rain Heavy Rain
2:01 AM 71.1 °F - 66.9 °F 87% 30.08 in 3.0 mi SW 3.5 mph - 0.02 in Rain Rain
2:53 AM 70.0 °F - 66.0 °F 87% 30.05 in 10.0 mi WSW 6.9 mph - 0.12 in   Overcast
3:53 AM 70.0 °F - 64.9 °F 84% 30.04 in 6.0 mi WNW 6.9 mph - 0.04 in Rain Rain
4:05 AM 69.1 °F - 64.9 °F 87% 30.04 in 10.0 mi West 8.1 mph - 0.01 in Rain Light Rain
4:53 AM 70.0 °F - 66.0 °F 87% 30.04 in 10.0 mi West 4.6 mph - 0.01 in   Overcast
5:20 AM 69.1 °F - 64.9 °F 87% 30.06 in 7.0 mi South 5.8 mph - 0.00 in Rain Rain
5:28 AM 69.1 °F - 64.9 °F 87% 30.06 in 5.0 mi SSW 6.9 mph - 0.02 in Rain Rain
5:40 AM 68.0 °F - 64.9 °F 90% 30.06 in 6.0 mi South 8.1 mph - 0.03 in Rain Light Rain
5:51 AM 68.0 °F - 64.4 °F 88% 30.06 in 8.0 mi SW 10.4 mph - 0.08 in Rain Light Rain
5:53 AM 68.0 °F - 64.9 °F 90% 30.06 in 8.0 mi SW 9.2 mph - 0.09 in Rain Light Rain
6:53 AM 70.0 °F - 64.9 °F 84% 30.07 in 10.0 mi WSW 6.9 mph - 0.01 in   Mostly Cloudy
7:53 AM 75.9 °F - 66.9 °F 74% 30.08 in 10.0 mi WSW 5.8 mph - N/A   Scattered Clouds
8:53 AM 80.1 °F 81.7 °F 64.0 °F 58% 30.08 in 10.0 mi Variable 3.5 mph - N/A   Scattered Clouds
9:53 AM 81.0 °F 82.2 °F 63.0 °F 54% 30.07 in 10.0 mi North 6.9 mph - N/A   Partly Cloudy
10:53 AM 82.0 °F 84.5 °F 66.9 °F 60% 30.07 in 10.0 mi NE 9.2 mph - N/A   Clear
11:53 AM 82.9 °F 85.0 °F 66.0 °F 56% 30.06 in 10.0 mi ENE 8.1 mph - N/A   Partly Cloudy
12:53 PM 82.9 °F 85.8 °F 68.0 °F 60% 30.06 in 10.0 mi NNE 12.7 mph - N/A   Scattered Clouds
1:53 PM 82.9 °F 85.4 °F 66.9 °F 58% 30.04 in 10.0 mi ENE 11.5 mph - N/A   Clear
2:53 PM 82.0 °F 83.8 °F 64.9 °F 56% 30.03 in 10.0 mi ENE 11.5 mph - N/A   Mostly Cloudy
3:53 PM 80.1 °F 81.7 °F 64.0 °F 58% 30.02 in 10.0 mi NE 6.9 mph - N/A   Mostly Cloudy
4:53 PM 81.0 °F 82.7 °F 64.9 °F 58% 30.01 in 10.0 mi NE 8.1 mph - N/A   Partly Cloudy
5:53 PM 80.1 °F 81.7 °F 64.0 °F 58% 30.02 in 10.0 mi North 6.9 mph - N/A   Clear
6:53 PM 77.0 °F - 64.0 °F 64% 30.03 in 10.0 mi NE 6.9 mph - N/A   Clear
7:53 PM 75.9 °F - 63.0 °F 64% 30.04 in 10.0 mi NNE 3.5 mph - N/A   Clear
8:53 PM 75.0 °F - 64.9 °F 71% 30.06 in 10.0 mi WNW 5.8 mph - N/A   Partly Cloudy
9:53 PM 73.9 °F - 64.9 °F 73% 30.07 in 10.0 mi West 3.5 mph - N/A   Mostly Cloudy
10:53 PM 72.0 °F - 64.0 °F 76% 30.07 in 10.0 mi WSW 6.9 mph - N/A   Mostly Cloudy
11:53 PM 71.1 °F - 62.1 °F 73% 30.06 in 10.0 mi WSW 4.6 mph - N/A   Mostly Cloudy